SCP
0 0 0 1 1 1 1 0 0 0 0 0 0 0 0 0 0 0 0 0 0 0 0 0 0 0 0 0 0 0 0 0 0 0 0 0 0 0 0 0 0 0 0
0 0 0 0 1 1 0 0 0 0 0 0 0 0 0 0 0 0 0 0 0 0 0 0 0 0 0 0 0 0 0 0 0 0 0 0 0 0 0 0 0 0 0
0 0 0 0 0 0 0 0 0 0 0 0 0 0 0 0 0 0 0 0 0 0 0 0 0 0 0 0 -0 -0 -0 0 0 0 0 0 0 0 0 0 0 0 0
0 0 0 0 0 0 0 0 0 0 0 0 0 0 0 0 0 0 0 0 0 0 0 0 0 0 -0 -0 -0 -0 -0 -0 0 0 0 0 0 0 0 0 0 0 0
0 0 0 0 0 0 0 0 0 0 0 0 0 0 0 0 0 0 0 0 0 0 0 0 0 0 -0 -0 -0 -0 -0 0 0 0 0 0 0 0 0 0 0 0 0
0 0 0 0 0 0 0 0 0 0 0 0 0 0 0 0 0 0 0 0 0 0 0 0 0 0 0 0 0 0 0 0 0 0 0 0 0 0 0 0 1 1 1
0 0 0 0 0 0 0 0 0 1 1 1 1 0 0 0 0 0 0 1 1 0 0 0 0 0 0 0 0 0 0 0 0 0 0 0 0 0 0 0 0 1 1
0 0 0 0 0 0 0 1 1 1 1 1 1 1 0 0 0 0 0 1 0 0 0 0 0 0 0 0 0 0 0 0 0 0 0 0 0 0 0 0 0 0 0
0 0 0 0 0 0 0 1 1 1 1 1 1 1 0 0 0 0 0 0 0 0 0 0 0 0 0 0 0 0 0 0 0 0 0 0 0 0 0 0 0 0 0
0 0 0 0 0 0 0 0 1 1 1 1 1 1 1 0 0 0 0 0 0 0 0 0 0 0 -0 -0 -0 -0 0 0 0 0 0 0 0 0 0 0 0 0 0
0 0 0 0 0 0 0 0 0 0 1 1 1 1 1 0 0 0 0 0 0 0 0 0 -0 -0 -0 -0 -0 -0 -0 -0 0 0 0 0 0 0 0 0 0 0 0
0 0 0 0 0 0 0 0 0 0 0 0 0 0 0 0 0 0 0 0 0 0 -0 -0 -0 -0 -0 -0 -0 -0 -0 -0 -0 0 0 0 0 0 0 0 0 0 0
0 0 0 0 0 0 0 0 0 0 0 0 0 0 0 0 0 0 0 0 0 -0 -0 -0 -0 -0 -0 -0 -0 -0 -0 -0 -0 0 0 0 0 0 0 0 0 0 0
0 0 0 0 0 0 0 0 0 0 0 0 0 0 0 0 0 0 0 0 0 -0 -0 -0 -0 -0 -0 -0 -0 -0 0 0 0 0 0 0 0 0 0 0 0 0 0
0 0 0 0 0 0 0 0 0 0 0 0 0 0 0 0 0 0 0 0 0 0 0 0 0 0 0 0 0 0 0 0 0 0 0 0 0 0 0 0 0 0 0
1 0 0 0 0 0 0 0 0 0 0 0 0 0 0 0 0 0 0 0 0 0 0 0 0 0 0 0 0 0 0 0 0 0 0 0 0 1 1 1 1 1 1
1 1 0 0 0 0 0 0 0 0 0 0 0 0 0 0 0 0 0 0 0 0 0 0 0 0 0 0 0 0 0 0 0 0 0 0 0 1 1 1 1 1 1
1 1 0 0 0 0 0 0 0 0 0 0 0 0 0 0 0 0 0 0 0 0 0 0 0 0 0 0 0 0 0 0 0 0 0 0 0 0 0 1 1 1 1
1 0 0 0 0 0 0 0 0 0 0 0 0 0 0 0 0 0 0 0 0 0 0 0 0 0 0 0 0 0 0 0 0 0 0 0 0 0 0 0 1 1 1
0 0 0 0 0 0 0 0 0 0 0 0 0 0 0 0 0 0 0 0 0 0 0 0 0 0 0 0 0 0 0 0 0 0 0 0 0 0 0 0 0 0 1
0 0 0 0 0 0 0 0 0 0 0 0 0 0 0 0 0 0 0 0 0 0 0 0 0 0 0 0 0 0 0 0 0 0 0 0 0 0 0 0 0 0 0
0 0 0 0 0 0 0 0 0 0 0 0 0 0 0 0 0 0 0 0 0 0 0 0 0 0 0 0 0 0 0 0 0 0 0 0 0 0 0 0 0 0 0
0 0 0 0 0 0 0 0 0 0 0 0 0 0 0 0 0 0 0 0 0 0 0 0 0 0 0 0 0 0 0 0 0 0 0 0 0 0 0 0 0 0 0
0 0 0 0 0 0 0 0 0 0 0 0 0 0 0 0 0 0 0 0 0 0 0 0 0 0 0 0 0 0 0 0 0 0 0 0 0 0 0 0 0 0 0
0 0 0 0 0 0 0 0 0 0 0 0 0 0 0 0 0 0 0 0 0 0 0 0 0 0 0 0 0 0 0 0 0 0 0 0 0 0 0 0 0 0 0
0 0 0 0 0 0 0 0 0 0 0 0 0 0 0 0 0 0 0 0 0 0 0 0 0 -0 0 0 0 0 0 0 0 0 0 0 0 0 0 0 0 0 0
Wind_Speed
4 4 9 12 12 12 12 13 13 14 14 13 13 12 11 11 10 10 11 11 11 11 12 12 11 11 10 9 8 7 7 7 6 5 4 5 5 5 4 5 9 9 12
8 6 10 12 12 12 12 12 12 13 12 12 12 12 11 10 9 9 9 8 9 10 11 11 11 10 9 8 7 6 5 5 4 2 0 3 5 5 4 5 8 7 12
9 7 9 12 13 13 13 12 12 12 12 12 12 12 11 10 9 8 8 8 8 9 10 9 9 8 7 6 5 3 2 2 1 2 3 3 5 6 5 4 6 10 10
10 6 8 12 13 13 13 12 12 13 13 12 11 11 11 11 10 9 9 9 9 9 9 8 7 7 6 4 3 2 1 1 1 2 1 3 5 8 7 5 5 9 10
9 7 9 13 12 12 12 12 12 13 13 12 10 9 8 8 9 9 10 11 10 9 9 9 7 6 5 4 3 2 2 3 2 1 2 3 4 8 8 8 7 7 8
9 7 8 12 12 11 11 11 12 12 12 11 9 8 6 5 5 6 8 9 9 8 8 8 7 5 4 3 2 1 2 3 2 2 2 2 2 6 8 8 8 7 5
8 6 6 10 10 10 10 10 10 11 10 9 8 7 6 5 4 5 7 9 9 8 7 6 5 4 2 2 2 2 4 4 2 3 2 1 0 3 4 5 7 7 6
10 7 6 9 11 9 9 9 8 9 9 9 8 7 6 4 4 5 7 8 8 7 6 5 4 3 2 3 2 2 3 4 4 4 2 0 2 4 3 2 3 4 5
9 7 5 5 7 9 8 8 7 7 7 7 7 6 5 4 4 6 7 7 7 6 5 4 3 3 4 4 3 3 2 3 4 4 5 3 4 4 3 2 1 0 1
6 6 5 5 5 4 5 7 7 6 6 6 6 6 5 4 5 6 6 7 7 6 5 5 4 4 4 5 6 7 5 3 2 3 3 4 6 5 3 2 1 2 2
6 4 5 5 5 4 4 5 6 7 6 6 5 6 5 2 2 3 5 7 8 7 6 6 6 5 5 6 8 9 7 1 2 2 3 6 8 7 5 4 3 4 4
8 5 3 5 5 5 4 3 3 3 4 4 3 4 3 3 3 4 6 8 8 8 7 8 8 7 5 3 6 8 3 4 3 3 4 9 9 8 7 7 6 6 7
8 5 4 4 4 5 3 3 2 2 2 3 4 4 3 3 2 2 2 3 3 5 3 4 5 3 3 4 4 4 5 4 3 4 5 11 11 10 9 8 8 9 9
7 5 4 4 3 4 4 4 3 2 2 2 3 4 3 2 3 3 2 2 2 2 2 2 2 4 5 6 6 5 5 4 3 3 6 13 13 12 12 11 11 11 12
9 6 5 5 4 4 5 4 4 4 3 3 3 2 3 3 3 3 2 3 3 3 3 3 3 4 5 5 5 4 4 4 4 3 3 10 13 13 14 14 14 14 15
12 11 9 8 7 5 4 3 3 3 3 3 2 2 3 2 2 2 1 2 3 3 3 3 3 3 3 2 4 5 5 5 4 4 3 4 9 12 14 16 16 17 17
15 13 10 8 6 5 4 3 2 2 3 3 2 2 3 3 3 2 2 2 1 1 1 1 2 2 3 3 4 5 4 5 5 5 4 3 4 9 13 14 16 17 18
14 11 7 5 5 6 5 5 4 4 4 3 3 4 6 6 5 4 4 4 4 4 3 3 4 4 4 4 4 4 4 4 5 6 5 4 4 5 8 13 15 16 17
9 8 6 6 6 6 6 5 6 6 6 5 6 6 7 8 8 5 4 3 4 4 4 4 3 3 4 5 5 4 4 5 6 8 7 8 7 6 6 10 14 15 16
8 8 7 7 6 6 5 5 6 7 7 7 7 7 7 7 7 5 4 5 4 3 3 3 3 3 3 4 6 6 5 5 5 5 7 7 7 8 8 7 7 9 14
9 9 8 9 7 6 5 4 4 5 4 5 5 7 7 7 7 6 5 5 4 3 4 4 3 3 4 4 4 5 5 4 4 5 5 6 8 8 8 8 6 6 6
9 9 9 9 9 8 5 4 4 4 4 3 4 5 6 7 7 7 6 5 5 4 6 5 4 3 3 4 3 4 6 5 3 5 6 8 9 7 8 10 8 7 6
10 9 10 9 10 9 8 5 5 4 4 4 5 5 6 7 7 7 7 6 6 5 4 4 4 3 2 2 1 1 3 5 6 3 4 6 6 6 7 7 7 7 7
11 11 11 10 10 9 8 8 8 6 4 4 3 4 5 7 7 7 6 6 5 4 3 3 3 1 1 2 2 2 3 4 5 5 3 3 6 7 7 8 7 7 6
12 11 9 9 9 8 8 8 8 6 4 3 4 5 6 5 6 6 5 4 4 2 2 2 2 2 1 2 2 3 4 4 5 6 7 4 5 5 6 7 6 6 6
10 9 8 8 7 7 7 7 7 7 5 5 5 5 4 3 4 6 5 4 3 3 3 2 3 3 3 3 3 3 3 3 4 5 7 8 7 6 8 7 7 6 5
Wind_Direction
147 163 146 128 122 123 126 125 124 124 122 120 117 112 108 104 102 102 105 109 114 117 118 117 116 114 112 110 105 97 88 79 70 74 109 132 126 113 107 117 136 135 139
144 153 141 128 123 123 128 129 128 129 128 126 123 120 116 111 108 105 105 108 115 120 122 122 123 124 125 127 125 119 106 96 92 79 185 183 163 142 123 110 130 154 151
138 146 139 132 129 128 131 135 134 135 133 132 130 128 126 123 119 114 110 110 114 120 124 127 131 135 140 144 143 140 123 98 62 350 305 226 176 158 141 129 153 163 161
143 145 142 138 135 133 134 136 137 138 137 135 133 135 136 137 136 134 132 132 133 136 139 144 150 155 163 170 179 200 237 268 316 5 355 151 159 153 144 128 135 169 170
139 140 144 139 136 135 135 136 139 140 140 139 137 138 140 142 145 148 149 148 147 150 157 162 168 175 183 193 207 233 273 297 305 86 104 114 132 152 146 132 120 146 170
132 135 138 136 134 133 134 135 139 141 142 142 141 138 136 137 144 151 153 152 151 156 164 167 168 174 186 199 218 269 324 327 357 120 131 118 113 150 146 137 126 121 134
120 117 128 132 130 129 130 132 137 141 142 143 142 139 135 130 131 144 155 157 158 163 164 161 158 164 198 253 288 337 354 355 65 112 102 51 41 162 155 138 122 118 116
126 121 123 132 131 129 130 132 135 140 145 148 148 143 143 147 154 156 160 162 164 163 158 158 168 185 228 258 279 337 9 32 92 115 109 238 233 190 172 144 132 126 125
124 130 132 133 136 136 132 131 134 142 150 153 151 149 150 155 161 167 170 167 161 156 161 170 197 227 254 276 299 316 345 62 121 153 167 192 215 206 180 156 120 68 135
127 139 142 136 130 127 131 141 143 146 153 160 160 157 159 163 167 172 167 170 169 174 182 194 216 243 276 302 315 319 328 37 108 161 173 198 200 196 185 183 226 279 282
147 154 134 134 134 136 143 162 160 162 168 171 172 170 157 157 166 171 181 183 184 190 198 206 220 246 275 300 304 306 319 334 295 250 221 212 198 195 190 198 222 252 265
169 167 140 144 152 157 169 155 165 173 178 172 173 174 168 185 204 200 204 196 198 205 211 219 232 248 264 289 294 296 296 283 270 252 242 229 213 208 205 209 220 235 247
163 162 160 166 167 174 169 164 179 184 189 197 200 195 188 187 206 200 198 218 224 224 231 250 256 259 262 265 274 278 274 273 262 255 244 237 230 227 224 224 229 237 244
152 164 153 159 171 193 180 184 192 189 192 204 202 194 184 184 192 189 200 219 232 237 234 259 269 270 267 265 261 261 263 258 252 247 249 242 232 234 238 238 240 244 247
143 143 141 149 174 186 180 194 189 188 183 179 172 175 181 181 200 206 214 228 241 240 233 242 252 260 260 259 260 268 274 272 267 257 262 250 237 238 246 252 254 254 256
137 143 156 162 168 157 153 164 167 162 153 146 144 128 118 130 143 154 197 230 252 245 224 219 227 237 252 276 304 320 314 311 304 303 287 273 260 253 253 257 261 264 267
143 149 156 155 141 119 109 104 107 113 122 127 128 99 90 103 112 106 76 41 339 311 290 309 335 354 1 359 344 332 323 316 312 309 301 282 278 274 268 265 266 269 270
145 144 143 120 92 80 76 69 66 69 73 64 53 44 42 41 44 50 45 29 18 27 24 27 22 10 5 356 332 314 316 315 311 309 304 299 291 289 287 281 279 277 276
129 115 92 71 67 71 73 70 67 64 56 51 49 46 41 42 45 54 53 40 40 45 34 23 20 10 353 345 324 320 333 327 321 324 321 315 309 302 294 291 294 297 294
85 77 70 62 57 66 70 68 64 59 54 54 52 44 40 35 35 37 33 27 32 42 30 25 21 12 2 344 332 331 315 311 318 322 319 322 322 318 315 309 307 306 306
69 66 63 61 49 56 60 60 60 56 45 47 50 43 37 30 22 24 13 5 9 25 27 25 17 15 13 356 348 325 309 302 316 321 331 334 327 324 322 318 314 307 309
81 75 69 64 58 57 64 68 79 85 63 56 41 35 29 28 20 22 15 11 15 24 28 28 31 22 4 16 3 328 318 318 319 339 333 321 317 319 323 327 329 335 333
88 81 78 71 68 65 68 69 63 53 41 28 25 23 19 24 24 24 26 31 28 32 27 24 41 35 354 347 27 307 302 292 314 270 298 301 313 323 327 324 334 342 345
97 90 84 77 73 67 67 71 70 67 55 28 22 22 15 20 23 28 36 31 27 29 26 6 39 9 331 302 291 234 238 264 290 299 293 297 312 310 306 309 313 314 322
102 95 89 83 76 71 70 71 71 63 53 35 28 21 12 8 17 21 29 24 19 14 1 346 329 311 267 254 251 252 258 265 257 283 298 288 282 273 278 286 286 288 292
104 98 94 88 79 73 73 71 75 72 62 47 27 14 2 354 357 3 9 5 349 335 319 306 295 298 287 277 269 253 249 258 272 276 289 295 289 281 279 280 279 275 274